TimePST,TemperatureF,Dew PointF,Humidity,Sea Level PressureIn,VisibilityMPH,Wind Direction,Wind SpeedMPH,Gust SpeedMPH,PrecipitationIn,Events,Conditions,WindDirDegrees,DateUTC
12:53 AM,30.9,28.0,89,30.35,10.0,Calm,Calm,-,N/A,,Clear,0,2013-01-02 08:53:00
1:53 AM,30.9,27.0,85,30.33,10.0,Calm,Calm,-,N/A,,Clear,0,2013-01-02 09:53:00
2:53 AM,30.9,27.0,85,30.33,10.0,Calm,Calm,-,N/A,,Clear,0,2013-01-02 10:53:00
3:53 AM,30.2,26.6,86,30.32,10.0,Calm,Calm,-,N/A,,Clear,0,2013-01-02 11:53:00
4:53 AM,30.9,27.0,85,30.30,6.0,Calm,Calm,-,N/A,,Clear,0,2013-01-02 12:53:00
5:53 AM,30.9,26.1,82,30.30,7.0,Calm,Calm,-,N/A,,Clear,0,2013-01-02 13:53:00
6:53 AM,30.2,26.6,86,30.29,10.0,Calm,Calm,-,N/A,,Clear,0,2013-01-02 14:53:00
7:53 AM,28.9,25.0,85,30.29,8.0,Calm,Calm,-,N/A,,Clear,0,2013-01-02 15:53:00
8:53 AM,30.0,27.0,88,30.31,10.0,Calm,Calm,-,N/A,,Clear,0,2013-01-02 16:53:00
9:53 AM,34.0,28.9,82,30.32,10.0,Calm,Calm,-,N/A,,Partly Cloudy,0,2013-01-02 17:53:00
10:53 AM,37.9,28.9,70,30.31,10.0,Calm,Calm,-,N/A,,Clear,0,2013-01-02 18:53:00
11:53 AM,44.1,27.0,51,30.29,10.0,SSE,4.6,-,N/A,,Clear,160,2013-01-02 19:53:00
12:53 PM,46.9,24.1,41,30.27,10.0,SSE,4.6,-,N/A,,Clear,160,2013-01-02 20:53:00
1:53 PM,46.9,24.1,41,30.26,10.0,SSE,9.2,-,N/A,,Clear,150,2013-01-02 21:53:00
2:53 PM,46.9,24.1,41,30.25,10.0,South,6.9,-,N/A,,Partly Cloudy,170,2013-01-02 22:53:00
3:53 PM,44.1,21.9,42,30.25,10.0,SSE,5.8,-,N/A,,Clear,160,2013-01-02 23:53:00
4:53 PM,41.0,21.0,45,30.24,10.0,SSE,3.5,-,N/A,,Clear,150,2013-01-03 00:53:00
5:53 PM,37.9,19.9,48,30.24,10.0,SSE,5.8,-,N/A,,Clear,150,2013-01-03 01:53:00
6:53 PM,39.0,19.0,45,30.23,10.0,SE,8.1,-,N/A,,Clear,130,2013-01-03 02:53:00
7:53 PM,39.2,17.6,42,30.23,10.0,SE,10.4,-,N/A,,Clear,130,2013-01-03 03:53:00
8:53 PM,33.1,19.0,56,30.21,10.0,Calm,Calm,-,N/A,,Clear,0,2013-01-03 04:53:00
9:53 PM,34.0,18.0,52,30.21,10.0,SE,5.8,-,N/A,,Clear,140,2013-01-03 05:53:00
10:53 PM,37.9,19.0,47,30.20,10.0,ESE,4.6,-,N/A,,Clear,120,2013-01-03 06:53:00
11:53 PM,32.0,19.0,59,30.20,10.0,SE,4.6,-,N/A,,Clear,130,2013-01-03 07:53:00